星链-34728 (STARLINK-34728)

导读 | 豆包AI

STARLINK-34728是美国太空探索技术公司(SpaceX)星链星座的成员卫星,于2025年9月3日发射入轨。星链项目旨在构建全球卫星互联网星座,为全球偏远地区、海洋等信号覆盖薄弱区域提供高速宽带服务,该卫星进一步扩充了星链星座的在轨规模,提升了星座整体服务能力。

Basic Information
目录编号:
65455
目录名称:
STARLINK-34728
国际标识:
2025-194X
轨道中心:
EARTH
卫星名称:
星链-34728
卫星全名:
星链-34728 (STARLINK-34728)
卫星状态:
在轨 (已飞行238 天)
发射日期:
2025-09-03 UTC
国别 :
美国 (US)
星等 :
--
Orbit Information
数据来源 国际轨道数据 AOE轨道数据
星历时间 2026-04-29T11:03:43+0800
9小时前
查看轨道信息
2026-04-26T06:00:00+0800
3天前
查看轨道信息
半长轴 6927.627km 6927.663km
偏心率 0.0002275 0.0001851
轨道倾角 97.560° 97.578°
近地点辐角 95.788° 84.118°
升交点赤经 334.017° 330.868°
平近点角 264.361° 162.645°
近地点 547.913km 548.243km
远地点 551.067km 550.809km
周期 95.639分钟 95.640分钟
每日圈数 15.056571 15.056453
Detailed Information
固有亮度:
5
最大亮度:
2.5
卫星平台:
Starlink V1.0
覆盖范围:
全球
运营商:
太空探索技术公司
运营商所在国:
美国
制造商(研发单位):
太空探索技术公司
制造商所在国:
美国
使用方式:
暂无
Satellite Introduction
Starlink 计划是 SpaceX 推出的全球卫星互联网项目,通过发射低轨道卫星,为全球尤其是偏远地区提供高速、低延迟的互联网服务。自 2019 年起,Starlink 已部署数千颗卫星,旨在缩小全球数字鸿沟,推动互联网普及。该项目还为军事、航空等行业提供通信支持,带来广泛经济效益。
2D Orbit Map
3D Orbit Map
Orbit Altitude Analysis Chart
Orbit Inclination Analysis Chart
Orbit Comprehensive Analysis Chart
View Comprehensive Chart